Time,TemperatureF,DewpointF,PressureIn,WindDirection,WindDirectionDegrees,WindSpeedMPH,WindSpeedGustMPH,Humidity,HourlyPrecipIn,Conditions,Clouds,dailyrainin,SolarRadiationWatts/m^2,SoftwareType,DateUTC
2013-01-11 00:00:00,28.3,22.0,30.03,West,270,0.0,0.0,77,0.00,,,0.00,0,WeatherCatV1.11B39,2013-01-11 05:00:00,
2013-01-11 00:05:00,28.1,21.5,30.03,West,270,0.0,0.0,76,0.00,,,0.00,0,WeatherCatV1.11B39,2013-01-11 05:05:00,
2013-01-11 00:10:00,28.0,21.7,30.02,West,270,0.0,0.0,77,0.00,,,0.00,0,WeatherCatV1.11B39,2013-01-11 05:10:00,
2013-01-11 00:15:00,27.8,21.2,30.02,West,270,0.0,1.0,76,0.00,,,0.00,0,WeatherCatV1.11B39,2013-01-11 05:15:00,
2013-01-11 00:20:00,27.5,20.9,30.03,West,270,0.0,0.0,76,0.00,,,0.00,0,WeatherCatV1.11B39,2013-01-11 05:20:00,
2013-01-11 00:25:00,27.3,21.1,30.03,West,270,0.0,0.0,77,0.00,,,0.00,0,WeatherCatV1.11B39,2013-01-11 05:25:00,
2013-01-11 00:30:00,27.2,21.3,30.03,West,270,0.0,0.0,78,0.00,,,0.00,0,WeatherCatV1.11B39,2013-01-11 05:30:00,
2013-01-11 00:35:00,27.0,21.1,30.03,West,270,0.0,0.0,78,0.00,,,0.00,0,WeatherCatV1.11B39,2013-01-11 05:35:00,
2013-01-11 00:40:00,26.9,21.3,30.03,West,270,0.0,0.0,79,0.00,,,0.00,0,WeatherCatV1.11B39,2013-01-11 05:40:00,
2013-01-11 00:45:00,26.7,21.4,30.04,West,270,0.0,0.0,80,0.00,,,0.00,0,WeatherCatV1.11B39,2013-01-11 05:45:00,
2013-01-11 00:50:00,26.5,20.9,30.04,West,270,0.0,0.0,79,0.00,,,0.00,0,WeatherCatV1.11B39,2013-01-11 05:50:00,
2013-01-11 00:55:00,26.4,21.1,30.04,West,270,0.0,0.0,80,0.00,,,0.00,0,WeatherCatV1.11B39,2013-01-11 05:55:00,
2013-01-11 01:00:00,26.2,20.9,30.04,West,270,0.0,0.0,80,0.00,,,0.00,0,WeatherCatV1.11B39,2013-01-11 06:00:00,
2013-01-11 01:05:00,26.1,20.8,30.04,West,270,0.0,0.0,80,0.00,,,0.00,0,WeatherCatV1.11B39,2013-01-11 06:05:00,
2013-01-11 01:10:00,26.0,20.7,30.04,West,270,0.0,0.0,80,0.00,,,0.00,0,WeatherCatV1.11B39,2013-01-11 06:10:00,
2013-01-11 01:15:00,25.8,20.5,30.04,West,270,0.0,0.0,80,0.00,,,0.00,0,WeatherCatV1.11B39,2013-01-11 06:15:00,
2013-01-11 01:20:00,25.7,20.4,30.04,West,270,0.0,0.0,80,0.00,,,0.00,0,WeatherCatV1.11B39,2013-01-11 06:20:00,
2013-01-11 01:25:00,25.6,20.3,30.04,West,270,0.0,0.0,80,0.00,,,0.00,0,WeatherCatV1.11B39,2013-01-11 06:25:00,
2013-01-11 01:30:00,25.4,20.4,30.04,West,270,0.0,1.0,81,0.00,,,0.00,0,WeatherCatV1.11B39,2013-01-11 06:30:00,
2013-01-11 01:35:00,25.3,20.3,30.04,West,270,0.0,0.0,81,0.00,,,0.00,0,WeatherCatV1.11B39,2013-01-11 06:35:00,
2013-01-11 01:40:00,25.1,19.8,30.03,West,271,0.0,0.0,80,0.00,,,0.00,0,WeatherCatV1.11B39,2013-01-11 06:40:00,
2013-01-11 01:45:00,24.8,19.8,30.04,West,271,0.0,0.0,81,0.00,,,0.00,0,WeatherCatV1.11B39,2013-01-11 06:45:00,
2013-01-11 01:50:00,24.6,19.9,30.04,West,271,0.0,0.0,82,0.00,,,0.00,0,WeatherCatV1.11B39,2013-01-11 06:50:00,
2013-01-11 01:55:00,24.4,19.7,30.04,West,271,0.0,0.0,82,0.00,,,0.00,0,WeatherCatV1.11B39,2013-01-11 06:55:00,
2013-01-11 02:00:00,24.2,19.8,30.04,West,271,0.0,0.0,83,0.00,,,0.00,0,WeatherCatV1.11B39,2013-01-11 07:00:00,
2013-01-11 02:05:00,24.0,19.9,30.04,West,271,0.0,1.0,84,0.00,,,0.00,0,WeatherCatV1.11B39,2013-01-11 07:05:00,
2013-01-11 02:10:00,23.9,19.8,30.04,West,271,0.0,0.0,84,0.00,,,0.00,0,WeatherCatV1.11B39,2013-01-11 07:10:00,
2013-01-11 02:15:00,23.8,20.0,30.03,West,271,0.0,0.0,85,0.00,,,0.00,0,WeatherCatV1.11B39,2013-01-11 07:15:00,
2013-01-11 02:20:00,23.7,19.9,30.03,West,271,0.0,0.0,85,0.00,,,0.00,0,WeatherCatV1.11B39,2013-01-11 07:20:00,
2013-01-11 02:25:00,23.7,19.9,30.02,West,271,0.0,0.0,85,0.00,,,0.00,0,WeatherCatV1.11B39,2013-01-11 07:25:00,
2013-01-11 02:30:00,23.6,19.8,30.02,West,271,0.0,0.0,85,0.00,,,0.00,0,WeatherCatV1.11B39,2013-01-11 07:30:00,
2013-01-11 02:35:00,23.6,19.5,30.02,West,271,0.0,0.0,84,0.00,,,0.00,0,WeatherCatV1.11B39,2013-01-11 07:35:00,
2013-01-11 02:40:00,23.4,19.0,30.02,West,271,0.0,1.0,83,0.00,,,0.00,0,WeatherCatV1.11B39,2013-01-11 07:40:00,
2013-01-11 02:45:00,23.1,19.0,30.02,West,271,0.0,0.0,84,0.00,,,0.00,0,WeatherCatV1.11B39,2013-01-11 07:45:00,
2013-01-11 02:50:00,23.0,18.9,30.02,West,271,0.0,0.0,84,0.00,,,0.00,0,WeatherCatV1.11B39,2013-01-11 07:50:00,
2013-01-11 02:55:00,22.8,18.7,30.02,West,271,0.0,0.0,84,0.00,,,0.00,0,WeatherCatV1.11B39,2013-01-11 07:55:00,
2013-01-11 03:00:00,22.7,18.9,30.02,West,271,0.0,0.0,85,0.00,,,0.00,0,WeatherCatV1.11B39,2013-01-11 08:00:00,
2013-01-11 03:05:00,22.6,18.8,30.02,West,271,0.0,0.0,85,0.00,,,0.00,0,WeatherCatV1.11B39,2013-01-11 08:05:00,
2013-01-11 03:10:00,22.5,18.7,30.02,West,271,0.0,0.0,85,0.00,,,0.00,0,WeatherCatV1.11B39,2013-01-11 08:10:00,
2013-01-11 03:15:00,22.3,18.5,30.02,West,271,0.0,0.0,85,0.00,,,0.00,0,WeatherCatV1.11B39,2013-01-11 08:15:00,
2013-01-11 03:20:00,22.0,18.2,30.02,West,271,0.0,0.0,85,0.00,,,0.00,0,WeatherCatV1.11B39,2013-01-11 08:20:00,
2013-01-11 03:25:00,21.8,18.0,30.02,West,271,0.0,0.0,85,0.00,,,0.00,0,WeatherCatV1.11B39,2013-01-11 08:25:00,
2013-01-11 03:30:00,21.6,17.8,30.02,West,271,0.0,0.0,85,0.00,,,0.00,0,WeatherCatV1.11B39,2013-01-11 08:30:00,
2013-01-11 03:35:00,21.5,18.0,30.02,West,271,1.0,1.0,86,0.00,,,0.00,0,WeatherCatV1.11B39,2013-01-11 08:35:00,
2013-01-11 03:40:00,21.4,18.1,30.02,West,271,0.0,0.0,87,0.00,,,0.00,0,WeatherCatV1.11B39,2013-01-11 08:40:00,
2013-01-11 03:45:00,21.3,18.0,30.02,West,271,0.0,0.0,87,0.00,,,0.00,0,WeatherCatV1.11B39,2013-01-11 08:45:00,
2013-01-11 03:50:00,21.3,18.0,30.02,West,271,0.0,0.0,87,0.00,,,0.00,0,WeatherCatV1.11B39,2013-01-11 08:50:00,
2013-01-11 03:55:00,21.2,17.9,30.02,West,271,0.0,0.0,87,0.00,,,0.00,0,WeatherCatV1.11B39,2013-01-11 08:55:00,
2013-01-11 04:00:00,21.2,17.9,30.01,West,271,0.0,0.0,87,0.00,,,0.00,0,WeatherCatV1.11B39,2013-01-11 09:00:00,
2013-01-11 04:05:00,21.1,17.8,30.01,West,271,0.0,0.0,87,0.00,,,0.00,0,WeatherCatV1.11B39,2013-01-11 09:05:00,
2013-01-11 04:10:00,21.0,17.8,30.01,West,271,0.0,0.0,87,0.00,,,0.00,0,WeatherCatV1.11B39,2013-01-11 09:10:00,
2013-01-11 04:15:00,20.9,17.7,30.01,West,271,0.0,0.0,87,0.00,,,0.00,0,WeatherCatV1.11B39,2013-01-11 09:15:00,
2013-01-11 04:20:00,20.8,17.6,30.00,West,271,0.0,0.0,87,0.00,,,0.00,0,WeatherCatV1.11B39,2013-01-11 09:20:00,
2013-01-11 04:25:00,20.7,17.5,30.00,West,271,0.0,0.0,87,0.00,,,0.00,0,WeatherCatV1.11B39,2013-01-11 09:25:00,
2013-01-11 04:30:00,20.7,17.5,30.00,West,271,0.0,0.0,87,0.00,,,0.00,0,WeatherCatV1.11B39,2013-01-11 09:30:00,
2013-01-11 04:35:00,20.6,17.4,30.00,West,271,0.0,0.0,87,0.00,,,0.00,0,WeatherCatV1.11B39,2013-01-11 09:35:00,
2013-01-11 04:40:00,20.4,17.2,30.00,West,271,0.0,0.0,87,0.00,,,0.00,0,WeatherCatV1.11B39,2013-01-11 09:40:00,
2013-01-11 04:45:00,20.3,17.1,30.00,West,271,0.0,0.0,87,0.00,,,0.00,0,WeatherCatV1.11B39,2013-01-11 09:45:00,
2013-01-11 04:50:00,20.2,17.0,29.99,West,271,0.0,0.0,87,0.00,,,0.00,0,WeatherCatV1.11B39,2013-01-11 09:50:00,
2013-01-11 04:55:00,20.0,16.8,29.99,West,271,0.0,0.0,87,0.00,,,0.00,0,WeatherCatV1.11B39,2013-01-11 09:55:00,
2013-01-11 05:00:00,19.9,16.7,30.00,West,271,0.0,0.0,87,0.00,,,0.00,0,WeatherCatV1.11B39,2013-01-11 10:00:00,
2013-01-11 05:05:00,19.8,16.6,30.00,West,271,0.0,0.0,87,0.00,,,0.00,0,WeatherCatV1.11B39,2013-01-11 10:05:00,
2013-01-11 05:10:00,19.7,16.7,29.99,West,271,0.0,0.0,88,0.00,,,0.00,0,WeatherCatV1.11B39,2013-01-11 10:10:00,
2013-01-11 05:15:00,19.7,16.5,30.00,West,271,0.0,0.0,87,0.00,,,0.00,0,WeatherCatV1.11B39,2013-01-11 10:15:00,
2013-01-11 05:20:00,19.7,16.7,30.00,West,271,0.0,0.0,88,0.00,,,0.00,0,WeatherCatV1.11B39,2013-01-11 10:20:00,
2013-01-11 05:25:00,19.7,17.0,30.00,West,271,0.0,0.0,89,0.00,,,0.00,0,WeatherCatV1.11B39,2013-01-11 10:25:00,
2013-01-11 05:30:00,19.6,16.9,30.00,West,271,0.0,0.0,89,0.00,,,0.00,0,WeatherCatV1.11B39,2013-01-11 10:30:00,
2013-01-11 05:35:00,19.5,16.8,30.00,West,271,0.0,0.0,89,0.00,,,0.00,0,WeatherCatV1.11B39,2013-01-11 10:35:00,
2013-01-11 05:40:00,19.5,16.8,30.00,West,271,0.0,0.0,89,0.00,,,0.00,0,WeatherCatV1.11B39,2013-01-11 10:40:00,
2013-01-11 05:45:00,19.4,16.7,30.00,West,271,0.0,0.0,89,0.00,,,0.00,0,WeatherCatV1.11B39,2013-01-11 10:45:00,
2013-01-11 05:50:00,19.3,16.6,30.00,West,271,0.0,0.0,89,0.00,,,0.00,0,WeatherCatV1.11B39,2013-01-11 10:50:00,
2013-01-11 05:55:00,19.3,16.6,30.00,West,271,0.0,0.0,89,0.00,,,0.00,0,WeatherCatV1.11B39,2013-01-11 10:55:00,
2013-01-11 06:00:00,19.2,16.5,30.00,West,271,0.0,0.0,89,0.00,,,0.00,0,WeatherCatV1.11B39,2013-01-11 11:00:00,
2013-01-11 06:05:00,19.1,16.4,30.01,West,271,0.0,0.0,89,0.00,,,0.00,0,WeatherCatV1.11B39,2013-01-11 11:05:00,
2013-01-11 06:10:00,19.1,16.4,30.02,West,271,0.0,0.0,89,0.00,,,0.00,0,WeatherCatV1.11B39,2013-01-11 11:10:00,
2013-01-11 06:15:00,19.0,16.3,30.02,West,271,0.0,0.0,89,0.00,,,0.00,0,WeatherCatV1.11B39,2013-01-11 11:15:00,
2013-01-11 06:20:00,18.9,16.2,30.02,West,271,0.0,0.0,89,0.00,,,0.00,0,WeatherCatV1.11B39,2013-01-11 11:20:00,
2013-01-11 06:25:00,18.9,16.2,30.02,West,271,0.0,0.0,89,0.00,,,0.00,0,WeatherCatV1.11B39,2013-01-11 11:25:00,
2013-01-11 06:30:00,18.8,16.1,30.02,West,271,0.0,0.0,89,0.00,,,0.00,0,WeatherCatV1.11B39,2013-01-11 11:30:00,
2013-01-11 06:35:00,18.7,16.0,30.03,West,271,0.0,0.0,89,0.00,,,0.00,0,WeatherCatV1.11B39,2013-01-11 11:35:00,
2013-01-11 06:40:00,18.7,16.0,30.03,West,271,0.0,0.0,89,0.00,,,0.00,0,WeatherCatV1.11B39,2013-01-11 11:40:00,
2013-01-11 06:45:00,18.6,15.9,30.03,West,271,0.0,0.0,89,0.00,,,0.00,0,WeatherCatV1.11B39,2013-01-11 11:45:00,
2013-01-11 06:50:00,18.5,15.8,30.04,West,271,0.0,0.0,89,0.00,,,0.00,0,WeatherCatV1.11B39,2013-01-11 11:50:00,
2013-01-11 06:55:00,18.5,15.8,30.04,West,271,0.0,0.0,89,0.00,,,0.00,0,WeatherCatV1.11B39,2013-01-11 11:55:00,
2013-01-11 07:00:00,18.4,16.0,30.04,West,271,0.0,0.0,90,0.00,,,0.00,0,WeatherCatV1.11B39,2013-01-11 12:00:00,
2013-01-11 07:05:00,18.4,16.0,30.04,West,271,0.0,0.0,90,0.00,,,0.00,0,WeatherCatV1.11B39,2013-01-11 12:05:00,
2013-01-11 07:10:00,18.3,15.9,30.04,West,271,0.0,0.0,90,0.00,,,0.00,0,WeatherCatV1.11B39,2013-01-11 12:10:00,
2013-01-11 07:15:00,18.2,15.8,30.03,West,271,0.0,0.0,90,0.00,,,0.00,0,WeatherCatV1.11B39,2013-01-11 12:15:00,
2013-01-11 07:20:00,18.1,15.7,30.04,West,271,0.0,0.0,90,0.00,,,0.00,0,WeatherCatV1.11B39,2013-01-11 12:20:00,
2013-01-11 07:25:00,18.0,15.3,30.04,West,271,0.0,0.0,89,0.00,,,0.00,0,WeatherCatV1.11B39,2013-01-11 12:25:00,
2013-01-11 07:30:00,17.8,15.1,30.04,West,271,0.0,0.0,89,0.00,,,0.00,7,WeatherCatV1.11B39,2013-01-11 12:30:00,
2013-01-11 07:35:00,17.7,15.0,30.04,West,271,0.0,0.0,89,0.00,,,0.00,9,WeatherCatV1.11B39,2013-01-11 12:35:00,
2013-01-11 07:40:00,17.5,14.8,30.05,West,271,0.0,0.0,89,0.00,,,0.00,11,WeatherCatV1.11B39,2013-01-11 12:40:00,
2013-01-11 07:45:00,17.4,15.0,30.04,West,271,0.0,0.0,90,0.00,,,0.00,12,WeatherCatV1.11B39,2013-01-11 12:45:00,
2013-01-11 07:50:00,17.4,15.0,30.04,West,271,0.0,0.0,90,0.00,,,0.00,18,WeatherCatV1.11B39,2013-01-11 12:50:00,
2013-01-11 07:55:00,17.3,14.9,30.04,West,271,0.0,0.0,90,0.00,,,0.00,19,WeatherCatV1.11B39,2013-01-11 12:55:00,
2013-01-11 08:00:00,17.3,14.9,30.04,West,271,0.0,0.0,90,0.00,,,0.00,21,WeatherCatV1.11B39,2013-01-11 13:00:00,
2013-01-11 08:05:00,17.3,15.1,30.04,West,271,0.0,0.0,91,0.00,,,0.00,25,WeatherCatV1.11B39,2013-01-11 13:05:00,
2013-01-11 08:10:00,17.3,15.1,30.04,West,271,0.0,0.0,91,0.00,,,0.00,25,WeatherCatV1.11B39,2013-01-11 13:10:00,
2013-01-11 08:15:00,17.3,15.1,30.04,West,271,0.0,0.0,91,0.00,,,0.00,25,WeatherCatV1.11B39,2013-01-11 13:15:00,
2013-01-11 08:20:00,17.4,15.2,30.03,West,271,0.0,0.0,91,0.00,,,0.00,26,WeatherCatV1.11B39,2013-01-11 13:20:00,
2013-01-11 08:25:00,17.5,15.3,30.03,West,271,0.0,0.0,91,0.00,,,0.00,28,WeatherCatV1.11B39,2013-01-11 13:25:00,
2013-01-11 08:30:00,17.6,15.4,30.03,West,271,0.0,0.0,91,0.00,,,0.00,33,WeatherCatV1.11B39,2013-01-11 13:30:00,
2013-01-11 08:35:00,17.7,15.8,30.03,West,271,0.0,0.0,92,0.00,,,0.00,37,WeatherCatV1.11B39,2013-01-11 13:35:00,
2013-01-11 08:40:00,17.9,16.0,30.03,West,271,0.0,0.0,92,0.00,,,0.00,40,WeatherCatV1.11B39,2013-01-11 13:40:00,
2013-01-11 08:45:00,18.0,16.1,30.03,West,271,0.0,0.0,92,0.00,,,0.00,44,WeatherCatV1.11B39,2013-01-11 13:45:00,
2013-01-11 08:50:00,18.3,16.4,30.03,West,271,0.0,0.0,92,0.00,,,0.00,47,WeatherCatV1.11B39,2013-01-11 13:50:00,
2013-01-11 08:55:00,18.5,16.6,30.03,West,271,0.0,0.0,92,0.00,,,0.00,51,WeatherCatV1.11B39,2013-01-11 13:55:00,
2013-01-11 09:00:00,18.8,17.1,30.03,West,271,0.0,0.0,93,0.00,,,0.00,51,WeatherCatV1.11B39,2013-01-11 14:00:00,
2013-01-11 09:05:00,19.1,17.4,30.02,West,271,0.0,0.0,93,0.00,,,0.00,53,WeatherCatV1.11B39,2013-01-11 14:05:00,
2013-01-11 09:10:00,19.5,17.8,30.03,West,271,0.0,0.0,93,0.00,,,0.00,53,WeatherCatV1.11B39,2013-01-11 14:10:00,
2013-01-11 09:15:00,19.7,18.0,30.03,West,271,0.0,0.0,93,0.00,,,0.00,56,WeatherCatV1.11B39,2013-01-11 14:15:00,
2013-01-11 09:20:00,20.2,18.8,30.03,West,271,0.0,0.0,94,0.00,,,0.00,98,WeatherCatV1.11B39,2013-01-11 14:20:00,
2013-01-11 09:25:00,20.9,19.5,30.02,West,271,0.0,0.0,94,0.00,,,0.00,105,WeatherCatV1.11B39,2013-01-11 14:25:00,
2013-01-11 09:30:00,21.4,19.7,30.02,West,271,0.0,0.0,93,0.00,,,0.00,67,WeatherCatV1.11B39,2013-01-11 14:30:00,
2013-01-11 09:35:00,21.7,19.7,30.02,West,271,0.0,0.0,92,0.00,,,0.00,67,WeatherCatV1.11B39,2013-01-11 14:35:00,
2013-01-11 09:40:00,22.0,20.0,30.02,West,271,0.0,0.0,92,0.00,,,0.00,53,WeatherCatV1.11B39,2013-01-11 14:40:00,
2013-01-11 09:45:00,22.4,20.2,30.02,West,271,0.0,0.0,91,0.00,,,0.00,54,WeatherCatV1.11B39,2013-01-11 14:45:00,
2013-01-11 09:50:00,22.7,20.0,30.02,West,271,0.0,0.0,89,0.00,,,0.00,63,WeatherCatV1.11B39,2013-01-11 14:50:00,
2013-01-11 09:55:00,23.1,20.1,30.02,West,271,0.0,0.0,88,0.00,,,0.00,74,WeatherCatV1.11B39,2013-01-11 14:55:00,
2013-01-11 10:00:00,23.4,20.4,30.02,West,271,0.0,0.0,88,0.00,,,0.00,76,WeatherCatV1.11B39,2013-01-11 15:00:00,
2013-01-11 10:05:00,23.7,20.4,30.01,West,271,0.0,0.0,87,0.00,,,0.00,81,WeatherCatV1.11B39,2013-01-11 15:05:00,
2013-01-11 10:08:00,23.9,20.6,30.01,West,271,0.0,0.0,87,0.00,,,0.00,86,WeatherCatV1.11B39,2013-01-11 15:08:00,
2013-01-11 10:13:00,24.2,20.6,30.01,West,271,0.0,0.0,86,0.00,,,0.00,81,WeatherCatV1.11B39,2013-01-11 15:13:00,
2013-01-11 10:18:00,24.5,20.6,30.01,West,271,0.0,0.0,85,0.00,,,0.00,84,WeatherCatV1.11B39,2013-01-11 15:18:00,
2013-01-11 10:23:00,24.9,21.0,30.01,West,271,0.0,0.0,85,0.00,,,0.00,83,WeatherCatV1.11B39,2013-01-11 15:23:00,
2013-01-11 10:28:00,25.2,21.3,30.00,West,271,0.0,0.0,85,0.00,,,0.00,77,WeatherCatV1.11B39,2013-01-11 15:28:00,
2013-01-11 10:33:00,25.4,21.5,30.00,West,271,0.0,0.0,85,0.00,,,0.00,81,WeatherCatV1.11B39,2013-01-11 15:33:00,
2013-01-11 10:38:00,25.7,22.1,30.00,West,271,0.0,0.0,86,0.00,,,0.00,79,WeatherCatV1.11B39,2013-01-11 15:38:00,
2013-01-11 10:43:00,26.2,22.0,30.00,West,271,0.0,0.0,84,0.00,,,0.00,81,WeatherCatV1.11B39,2013-01-11 15:43:00,
2013-01-11 10:48:00,26.7,22.2,29.99,West,271,0.0,0.0,83,0.00,,,0.00,81,WeatherCatV1.11B39,2013-01-11 15:48:00,
2013-01-11 10:53:00,27.2,22.4,29.98,West,271,0.0,0.0,82,0.00,,,0.00,84,WeatherCatV1.11B39,2013-01-11 15:53:00,
2013-01-11 10:58:00,27.6,22.5,29.98,West,271,0.0,0.0,81,0.00,,,0.00,105,WeatherCatV1.11B39,2013-01-11 15:58:00,
2013-01-11 11:03:00,27.9,22.8,29.98,West,271,0.0,0.0,81,0.00,,,0.00,93,WeatherCatV1.11B39,2013-01-11 16:03:00,
2013-01-11 11:08:00,28.2,21.9,29.97,West,271,0.0,0.0,77,0.00,,,0.00,100,WeatherCatV1.11B39,2013-01-11 16:08:00,
2013-01-11 11:13:00,28.6,22.6,29.96,West,271,0.0,0.0,78,0.00,,,0.00,116,WeatherCatV1.11B39,2013-01-11 16:13:00,
2013-01-11 11:18:00,28.9,22.6,29.96,West,271,0.0,0.0,77,0.00,,,0.00,139,WeatherCatV1.11B39,2013-01-11 16:18:00,
2013-01-11 11:23:00,29.4,23.1,29.95,West,271,0.0,0.0,77,0.00,,,0.00,128,WeatherCatV1.11B39,2013-01-11 16:23:00,
2013-01-11 11:28:00,29.8,23.5,29.95,West,271,1.0,1.0,77,0.00,,,0.00,107,WeatherCatV1.11B39,2013-01-11 16:28:00,
2013-01-11 11:33:00,30.1,23.8,29.95,West,271,0.0,0.0,77,0.00,,,0.00,100,WeatherCatV1.11B39,2013-01-11 16:33:00,
2013-01-11 11:38:00,30.4,23.8,29.95,West,271,0.0,0.0,76,0.00,,,0.00,109,WeatherCatV1.11B39,2013-01-11 16:38:00,
2013-01-11 11:43:00,30.6,23.6,29.95,West,271,0.0,0.0,75,0.00,,,0.00,118,WeatherCatV1.11B39,2013-01-11 16:43:00,
2013-01-11 11:48:00,30.8,23.5,29.94,West,271,0.0,0.0,74,0.00,,,0.00,118,WeatherCatV1.11B39,2013-01-11 16:48:00,
2013-01-11 11:53:00,31.2,24.5,29.94,West,271,0.0,0.0,76,0.00,,,0.00,163,WeatherCatV1.11B39,2013-01-11 16:53:00,
2013-01-11 11:58:00,31.5,24.5,29.93,West,271,0.0,0.0,75,0.00,,,0.00,105,WeatherCatV1.11B39,2013-01-11 16:58:00,
2013-01-11 12:03:00,31.8,23.5,29.93,West,267,0.0,0.0,71,0.00,,,0.00,90,WeatherCatV1.11B39,2013-01-11 17:03:00,
2013-01-11 12:08:00,32.1,24.1,29.93,West,267,0.0,1.0,72,0.00,,,0.00,84,WeatherCatV1.11B39,2013-01-11 17:08:00,
2013-01-11 12:13:00,32.4,23.0,29.92,West,266,0.0,0.0,68,0.00,,,0.00,79,WeatherCatV1.11B39,2013-01-11 17:13:00,
2013-01-11 12:18:00,32.6,23.6,29.93,West,266,0.0,1.0,69,0.00,,,0.00,70,WeatherCatV1.11B39,2013-01-11 17:18:00,
2013-01-11 12:23:00,32.8,23.1,29.92,West,266,0.0,1.0,67,0.00,,,0.00,60,WeatherCatV1.11B39,2013-01-11 17:23:00,
2013-01-11 12:28:00,33.0,23.3,29.92,West,266,0.0,0.0,67,0.00,,,0.00,58,WeatherCatV1.11B39,2013-01-11 17:28:00,
2013-01-11 12:31:00,33.0,22.9,29.92,West,266,0.0,0.0,66,0.00,,,0.00,58,WeatherCatV1.11B39,2013-01-11 17:31:00,
2013-01-11 12:36:00,33.2,23.1,29.92,West,266,0.0,1.0,66,0.00,,,0.00,69,WeatherCatV1.11B39,2013-01-11 17:36:00,
2013-01-11 12:41:00,33.3,23.5,29.91,West,266,0.0,0.0,67,0.00,,,0.00,79,WeatherCatV1.11B39,2013-01-11 17:41:00,
2013-01-11 12:46:00,33.5,23.4,29.91,West,266,0.0,0.0,66,0.00,,,0.00,84,WeatherCatV1.11B39,2013-01-11 17:46:00,
2013-01-11 12:51:00,33.6,24.2,29.90,West,266,0.0,0.0,68,0.00,,,0.00,93,WeatherCatV1.11B39,2013-01-11 17:51:00,
2013-01-11 12:56:00,33.8,24.0,29.90,West,266,0.0,0.0,67,0.00,,,0.00,111,WeatherCatV1.11B39,2013-01-11 17:56:00,
2013-01-11 13:01:00,34.0,24.2,29.90,West,266,0.0,0.0,67,0.00,,,0.00,118,WeatherCatV1.11B39,2013-01-11 18:01:00,
2013-01-11 13:06:00,34.2,24.4,29.90,West,266,0.0,0.0,67,0.00,,,0.00,98,WeatherCatV1.11B39,2013-01-11 18:06:00,
2013-01-11 13:11:00,34.4,24.2,29.90,West,266,0.0,0.0,66,0.00,,,0.00,74,WeatherCatV1.11B39,2013-01-11 18:11:00,
2013-01-11 13:16:00,34.4,24.6,29.90,West,266,0.0,0.0,67,0.00,,,0.00,63,WeatherCatV1.11B39,2013-01-11 18:16:00,
2013-01-11 13:21:00,34.4,23.9,29.90,West,266,0.0,1.0,65,0.00,,,0.00,58,WeatherCatV1.11B39,2013-01-11 18:21:00,
2013-01-11 13:26:00,34.6,24.1,29.90,West,266,0.0,0.0,65,0.00,,,0.00,54,WeatherCatV1.11B39,2013-01-11 18:26:00,
2013-01-11 13:31:00,34.7,24.5,29.90,West,266,0.0,0.0,66,0.00,,,0.00,53,WeatherCatV1.11B39,2013-01-11 18:31:00,
2013-01-11 13:36:00,34.7,23.8,29.90,West,265,0.0,1.0,64,0.00,,,0.00,53,WeatherCatV1.11B39,2013-01-11 18:36:00,
2013-01-11 13:41:00,34.8,24.3,29.90,West,265,0.0,0.0,65,0.00,,,0.00,51,WeatherCatV1.11B39,2013-01-11 18:41:00,
2013-01-11 13:46:00,34.9,24.3,29.90,West,265,0.0,0.0,65,0.00,,,0.00,53,WeatherCatV1.11B39,2013-01-11 18:46:00,
2013-01-11 13:51:00,35.0,25.2,29.90,West,265,0.0,0.0,67,0.00,,,0.00,53,WeatherCatV1.11B39,2013-01-11 18:51:00,
2013-01-11 13:56:00,35.1,24.5,29.90,West,265,0.0,0.0,65,0.00,,,0.00,51,WeatherCatV1.11B39,2013-01-11 18:56:00,
2013-01-11 14:01:00,35.1,24.2,29.89,West,265,0.0,0.0,64,0.00,,,0.00,54,WeatherCatV1.11B39,2013-01-11 19:01:00,
2013-01-11 14:06:00,35.2,24.3,29.89,West,265,0.0,0.0,64,0.00,,,0.00,54,WeatherCatV1.11B39,2013-01-11 19:06:00,
2013-01-11 14:11:00,35.2,25.4,29.89,West,265,0.0,0.0,67,0.00,,,0.00,56,WeatherCatV1.11B39,2013-01-11 19:11:00,
2013-01-11 14:16:00,35.3,24.7,29.89,West,265,0.0,0.0,65,0.00,,,0.00,53,WeatherCatV1.11B39,2013-01-11 19:16:00,
2013-01-11 14:21:00,35.4,25.5,29.89,West,265,0.0,0.0,67,0.00,,,0.00,47,WeatherCatV1.11B39,2013-01-11 19:21:00,
2013-01-11 14:26:00,35.4,25.2,29.88,West,265,0.0,0.0,66,0.00,,,0.00,46,WeatherCatV1.11B39,2013-01-11 19:26:00,
2013-01-11 14:31:00,35.4,24.1,29.88,West,265,0.0,0.0,63,0.00,,,0.00,46,WeatherCatV1.11B39,2013-01-11 19:31:00,
2013-01-11 14:36:00,35.4,24.8,29.88,West,265,0.0,0.0,65,0.00,,,0.00,44,WeatherCatV1.11B39,2013-01-11 19:36:00,
2013-01-11 14:41:00,35.4,24.1,29.88,West,265,0.0,1.0,63,0.00,,,0.00,39,WeatherCatV1.11B39,2013-01-11 19:41:00,
2013-01-11 14:46:00,35.4,24.5,29.88,West,265,0.0,0.0,64,0.00,,,0.00,32,WeatherCatV1.11B39,2013-01-11 19:46:00,
2013-01-11 14:51:00,35.4,24.1,29.88,WSW,237,0.0,0.0,63,0.00,,,0.00,28,WeatherCatV1.11B39,2013-01-11 19:51:00,
2013-01-11 14:56:00,35.3,23.2,29.88,WSW,237,0.0,0.0,61,0.00,,,0.00,26,WeatherCatV1.11B39,2013-01-11 19:56:00,
2013-01-11 15:01:00,35.3,22.8,29.88,SSW,198,0.0,1.0,60,0.00,,,0.00,23,WeatherCatV1.11B39,2013-01-11 20:01:00,
2013-01-11 15:06:00,35.3,24.0,29.88,SSW,198,0.0,0.0,63,0.00,,,0.00,21,WeatherCatV1.11B39,2013-01-11 20:06:00,
2013-01-11 15:11:00,35.2,23.5,29.87,SSW,198,0.0,1.0,62,0.00,,,0.00,18,WeatherCatV1.11B39,2013-01-11 20:11:00,
2013-01-11 15:16:00,35.2,23.5,29.87,SSW,198,0.0,0.0,62,0.00,,,0.00,16,WeatherCatV1.11B39,2013-01-11 20:16:00,
2013-01-11 15:21:00,35.1,23.0,29.87,South,182,1.0,2.0,61,0.00,,,0.00,16,WeatherCatV1.11B39,2013-01-11 20:21:00,
2013-01-11 15:26:00,35.0,24.4,29.87,South,182,0.0,1.0,65,0.00,,,0.00,12,WeatherCatV1.11B39,2013-01-11 20:26:00,
2013-01-11 15:31:00,34.9,22.8,29.86,South,182,0.0,0.0,61,0.00,,,0.00,9,WeatherCatV1.11B39,2013-01-11 20:31:00,
2013-01-11 15:36:00,34.8,23.9,29.86,South,182,0.0,0.0,64,0.00,,,0.00,7,WeatherCatV1.11B39,2013-01-11 20:36:00,
2013-01-11 15:41:00,34.7,24.5,29.85,South,182,0.0,0.0,66,0.00,,,0.00,0,WeatherCatV1.11B39,2013-01-11 20:41:00,
2013-01-11 15:46:00,34.6,25.1,29.85,South,182,0.0,0.0,68,0.00,,,0.00,0,WeatherCatV1.11B39,2013-01-11 20:46:00,
2013-01-11 15:51:00,34.5,25.0,29.84,South,182,0.0,0.0,68,0.00,,,0.00,0,WeatherCatV1.11B39,2013-01-11 20:51:00,
2013-01-11 15:56:00,34.4,25.3,29.85,South,182,0.0,0.0,69,0.00,,,0.00,0,WeatherCatV1.11B39,2013-01-11 20:56:00,
2013-01-11 16:01:00,34.4,26.7,29.85,South,183,0.0,1.0,73,0.00,,,0.00,0,WeatherCatV1.11B39,2013-01-11 21:01:00,
2013-01-11 16:06:00,34.3,27.5,29.84,South,183,0.0,0.0,76,0.00,,,0.00,0,WeatherCatV1.11B39,2013-01-11 21:06:00,
2013-01-11 16:11:00,34.0,27.6,29.84,South,183,0.0,0.0,77,0.00,,,0.00,0,WeatherCatV1.11B39,2013-01-11 21:11:00,
2013-01-11 16:16:00,33.8,28.0,29.84,South,183,0.0,0.0,79,0.00,,,0.00,0,WeatherCatV1.11B39,2013-01-11 21:16:00,
2013-01-11 16:21:00,33.6,28.1,29.83,South,183,0.0,0.0,80,0.00,,,0.00,0,WeatherCatV1.11B39,2013-01-11 21:21:00,
2013-01-11 16:26:00,33.4,28.5,29.83,South,183,0.0,1.0,82,0.00,,,0.00,0,WeatherCatV1.11B39,2013-01-11 21:26:00,
2013-01-11 16:31:00,33.2,28.6,29.83,South,183,0.0,1.0,83,0.00,,,0.00,0,WeatherCatV1.11B39,2013-01-11 21:31:00,
2013-01-11 16:36:00,32.9,28.6,29.84,South,183,0.0,1.0,84,0.00,,,0.00,0,WeatherCatV1.11B39,2013-01-11 21:36:00,
2013-01-11 16:41:00,32.7,28.7,29.83,South,183,0.0,0.0,85,0.00,,,0.00,0,WeatherCatV1.11B39,2013-01-11 21:41:00,
2013-01-11 16:45:00,32.6,28.6,29.83,South,183,0.0,0.0,85,0.00,,,0.00,0,WeatherCatV1.11B39,2013-01-11 21:45:00,
2013-01-11 16:46:00,32.5,28.5,29.83,South,183,0.0,0.0,85,0.00,,,0.00,0,WeatherCatV1.11B39,2013-01-11 21:46:00,
2013-01-11 16:51:00,32.3,28.3,29.83,South,183,0.0,0.0,85,0.00,,,0.00,0,WeatherCatV1.11B39,2013-01-11 21:51:00,
2013-01-11 16:52:00,32.3,28.3,29.83,South,183,0.0,0.0,85,0.00,,,0.00,0,WeatherCatV1.11B39,2013-01-11 21:52:00,
2013-01-11 16:55:00,32.2,28.2,29.83,South,183,0.0,0.0,85,0.00,,,0.00,0,WeatherCatV1.11B39,2013-01-11 21:55:00,
2013-01-11 17:00:00,32.1,28.4,29.83,South,183,0.0,0.0,86,0.00,,,0.00,0,WeatherCatV1.11B39,2013-01-11 22:00:00,
2013-01-11 17:01:00,32.1,28.4,29.83,South,183,0.0,0.0,86,0.00,,,0.00,0,WeatherCatV1.11B39,2013-01-11 22:01:00,
2013-01-11 17:06:00,31.9,28.2,29.83,South,183,0.0,1.0,86,0.00,,,0.00,0,WeatherCatV1.11B39,2013-01-11 22:06:00,
2013-01-11 17:11:00,31.8,28.1,29.83,South,183,0.0,0.0,86,0.00,,,0.00,0,WeatherCatV1.11B39,2013-01-11 22:11:00,
2013-01-11 17:16:00,31.7,28.3,29.83,South,183,0.0,0.0,87,0.00,,,0.00,0,WeatherCatV1.11B39,2013-01-11 22:16:00,
2013-01-11 17:21:00,31.6,27.9,29.83,South,183,0.0,0.0,86,0.00,,,0.00,0,WeatherCatV1.11B39,2013-01-11 22:21:00,
2013-01-11 17:26:00,31.5,28.1,29.83,South,183,0.0,0.0,87,0.00,,,0.00,0,WeatherCatV1.11B39,2013-01-11 22:26:00,
2013-01-11 17:31:00,31.5,27.8,29.83,South,183,0.0,1.0,86,0.00,,,0.00,0,WeatherCatV1.11B39,2013-01-11 22:31:00,
2013-01-11 17:36:00,31.4,27.4,29.83,South,183,0.0,0.0,85,0.00,,,0.00,0,WeatherCatV1.11B39,2013-01-11 22:36:00,
2013-01-11 17:41:00,31.3,27.0,29.83,South,183,0.0,0.0,84,0.00,,,0.00,0,WeatherCatV1.11B39,2013-01-11 22:41:00,
2013-01-11 17:46:00,31.3,26.7,29.83,South,182,0.0,1.0,83,0.00,,,0.00,0,WeatherCatV1.11B39,2013-01-11 22:46:00,
2013-01-11 17:51:00,31.3,26.2,29.83,South,178,0.0,0.0,81,0.00,,,0.00,0,WeatherCatV1.11B39,2013-01-11 22:51:00,
2013-01-11 17:56:00,31.3,25.6,29.83,South,178,0.0,2.0,79,0.00,,,0.00,0,WeatherCatV1.11B39,2013-01-11 22:56:00,
2013-01-11 18:01:00,31.3,25.3,29.83,South,178,0.0,1.0,78,0.00,,,0.00,0,WeatherCatV1.11B39,2013-01-11 23:01:00,
2013-01-11 18:06:00,31.4,25.0,29.83,South,178,0.0,1.0,77,0.00,,,0.00,0,WeatherCatV1.11B39,2013-01-11 23:06:00,
2013-01-11 18:11:00,31.4,25.0,29.83,South,178,0.0,1.0,77,0.00,,,0.00,0,WeatherCatV1.11B39,2013-01-11 23:11:00,
2013-01-11 18:16:00,31.4,25.0,29.83,South,178,0.0,0.0,77,0.00,,,0.00,0,WeatherCatV1.11B39,2013-01-11 23:16:00,
2013-01-11 18:21:00,31.4,24.7,29.83,South,178,0.0,1.0,76,0.00,,,0.00,0,WeatherCatV1.11B39,2013-01-11 23:21:00,
2013-01-11 18:26:00,31.5,25.4,29.82,South,178,0.0,0.0,78,0.00,,,0.00,0,WeatherCatV1.11B39,2013-01-11 23:26:00,
2013-01-11 18:31:00,31.5,25.4,29.82,South,178,0.0,0.0,78,0.00,,,0.00,0,WeatherCatV1.11B39,2013-01-11 23:31:00,
2013-01-11 18:36:00,31.5,25.1,29.81,South,178,0.0,0.0,77,0.00,,,0.00,0,WeatherCatV1.11B39,2013-01-11 23:36:00,
2013-01-11 18:41:00,31.5,24.8,29.81,South,178,0.0,1.0,76,0.00,,,0.00,0,WeatherCatV1.11B39,2013-01-11 23:41:00,
2013-01-11 18:46:00,31.5,24.8,29.81,South,178,0.0,0.0,76,0.00,,,0.00,0,WeatherCatV1.11B39,2013-01-11 23:46:00,
2013-01-11 18:51:00,31.5,25.1,29.81,South,178,0.0,1.0,77,0.00,,,0.00,0,WeatherCatV1.11B39,2013-01-11 23:51:00,
2013-01-11 18:56:00,31.6,25.2,29.81,South,178,0.0,1.0,77,0.00,,,0.00,0,WeatherCatV1.11B39,2013-01-11 23:56:00,
2013-01-11 19:01:00,31.6,25.5,29.81,South,178,0.0,0.0,78,0.00,,,0.00,0,WeatherCatV1.11B39,2013-01-12 00:01:00,
2013-01-11 19:06:00,31.6,25.2,29.81,South,178,0.0,0.0,77,0.00,,,0.00,0,WeatherCatV1.11B39,2013-01-12 00:06:00,
2013-01-11 19:11:00,31.6,25.2,29.81,South,178,0.0,0.0,77,0.00,,,0.00,0,WeatherCatV1.11B39,2013-01-12 00:11:00,
2013-01-11 19:16:00,31.6,25.2,29.81,South,178,0.0,0.0,77,0.00,,,0.00,0,WeatherCatV1.11B39,2013-01-12 00:16:00,
2013-01-11 19:21:00,31.6,25.2,29.81,South,178,0.0,0.0,77,0.00,,,0.00,0,WeatherCatV1.11B39,2013-01-12 00:21:00,
2013-01-11 19:26:00,31.6,25.2,29.81,South,178,0.0,0.0,77,0.00,,,0.00,0,WeatherCatV1.11B39,2013-01-12 00:26:00,
2013-01-11 19:31:00,31.6,25.2,29.81,South,178,0.0,0.0,77,0.00,,,0.00,0,WeatherCatV1.11B39,2013-01-12 00:31:00,
2013-01-11 19:36:00,31.6,25.2,29.81,South,178,0.0,0.0,77,0.00,,,0.00,0,WeatherCatV1.11B39,2013-01-12 00:36:00,
2013-01-11 19:41:00,31.7,25.3,29.81,South,178,0.0,2.0,77,0.00,,,0.00,0,WeatherCatV1.11B39,2013-01-12 00:41:00,
2013-01-11 19:46:00,31.7,25.6,29.81,South,178,0.0,0.0,78,0.00,,,0.00,0,WeatherCatV1.11B39,2013-01-12 00:46:00,
2013-01-11 19:51:00,31.7,25.6,29.81,South,175,0.0,1.0,78,0.00,,,0.00,0,WeatherCatV1.11B39,2013-01-12 00:51:00,
2013-01-11 19:56:00,31.8,26.6,29.81,South,175,0.0,1.0,81,0.00,,,0.00,0,WeatherCatV1.11B39,2013-01-12 00:56:00,
2013-01-11 20:01:00,31.8,27.2,29.81,South,175,0.0,0.0,83,0.00,,,0.00,0,WeatherCatV1.11B39,2013-01-12 01:01:00,
2013-01-11 20:06:00,31.8,27.2,29.81,South,175,0.0,0.0,83,0.00,,,0.00,0,WeatherCatV1.11B39,2013-01-12 01:06:00,
2013-01-11 20:11:00,31.7,27.1,29.81,South,175,0.0,1.0,83,0.00,,,0.00,0,WeatherCatV1.11B39,2013-01-12 01:11:00,
2013-01-11 20:16:00,31.7,27.1,29.81,South,175,1.0,1.0,83,0.00,,,0.00,0,WeatherCatV1.11B39,2013-01-12 01:16:00,
2013-01-11 20:21:00,31.6,27.0,29.80,South,175,0.0,0.0,83,0.00,,,0.00,0,WeatherCatV1.11B39,2013-01-12 01:21:00,
2013-01-11 20:26:00,31.6,27.3,29.81,South,175,0.0,0.0,84,0.00,,,0.00,0,WeatherCatV1.11B39,2013-01-12 01:26:00,
2013-01-11 20:31:00,31.6,27.3,29.81,South,175,0.0,0.0,84,0.00,,,0.00,0,WeatherCatV1.11B39,2013-01-12 01:31:00,
2013-01-11 20:36:00,31.5,27.2,29.81,South,175,0.0,0.0,84,0.00,,,0.00,0,WeatherCatV1.11B39,2013-01-12 01:36:00,
2013-01-11 20:41:00,31.5,27.2,29.81,South,175,0.0,0.0,84,0.00,,,0.00,0,WeatherCatV1.11B39,2013-01-12 01:41:00,
2013-01-11 20:46:00,31.5,27.8,29.81,South,175,0.0,0.0,86,0.00,,,0.00,0,WeatherCatV1.11B39,2013-01-12 01:46:00,
2013-01-11 20:51:00,31.5,27.8,29.81,South,175,0.0,0.0,86,0.00,,,0.00,0,WeatherCatV1.11B39,2013-01-12 01:51:00,
2013-01-11 20:56:00,31.5,27.8,29.81,South,175,0.0,0.0,86,0.00,,,0.00,0,WeatherCatV1.11B39,2013-01-12 01:56:00,
2013-01-11 21:01:00,31.5,28.1,29.80,South,175,0.0,0.0,87,0.00,,,0.00,0,WeatherCatV1.11B39,2013-01-12 02:01:00,
2013-01-11 21:06:00,31.4,28.3,29.80,South,175,0.0,0.0,88,0.00,,,0.00,0,WeatherCatV1.11B39,2013-01-12 02:06:00,
2013-01-11 21:11:00,31.4,28.3,29.80,South,175,0.0,0.0,88,0.00,,,0.00,0,WeatherCatV1.11B39,2013-01-12 02:11:00,
2013-01-11 21:16:00,31.4,28.3,29.81,South,175,0.0,0.0,88,0.00,,,0.00,0,WeatherCatV1.11B39,2013-01-12 02:16:00,
2013-01-11 21:21:00,31.3,28.4,29.81,South,175,0.0,0.0,89,0.00,,,0.00,0,WeatherCatV1.11B39,2013-01-12 02:21:00,
2013-01-11 21:26:00,31.3,28.7,29.80,South,175,0.0,0.0,90,0.00,,,0.00,0,WeatherCatV1.11B39,2013-01-12 02:26:00,
2013-01-11 21:31:00,31.2,28.6,29.80,South,175,0.0,0.0,90,0.00,,,0.00,0,WeatherCatV1.11B39,2013-01-12 02:31:00,
2013-01-11 21:36:00,31.1,28.5,29.80,South,175,0.0,0.0,90,0.00,,,0.00,0,WeatherCatV1.11B39,2013-01-12 02:36:00,
2013-01-11 21:41:00,31.1,28.8,29.79,South,175,0.0,0.0,91,0.00,,,0.00,0,WeatherCatV1.11B39,2013-01-12 02:41:00,
2013-01-11 21:46:00,31.0,28.7,29.79,South,175,0.0,0.0,91,0.00,,,0.00,0,WeatherCatV1.11B39,2013-01-12 02:46:00,
2013-01-11 21:51:00,31.0,28.7,29.78,South,175,0.0,0.0,91,0.00,,,0.00,0,WeatherCatV1.11B39,2013-01-12 02:51:00,
2013-01-11 21:56:00,30.9,28.6,29.79,South,175,0.0,0.0,91,0.00,,,0.00,0,WeatherCatV1.11B39,2013-01-12 02:56:00,
2013-01-11 22:01:00,30.9,28.6,29.79,South,175,0.0,0.0,91,0.00,,,0.00,0,WeatherCatV1.11B39,2013-01-12 03:01:00,
2013-01-11 22:06:00,30.9,28.6,29.79,South,175,0.0,0.0,91,0.00,,,0.00,0,WeatherCatV1.11B39,2013-01-12 03:06:00,
2013-01-11 22:11:00,30.8,28.8,29.79,South,175,0.0,0.0,92,0.00,,,0.00,0,WeatherCatV1.11B39,2013-01-12 03:11:00,
2013-01-11 22:16:00,30.8,28.8,29.79,South,175,0.0,0.0,92,0.00,,,0.00,0,WeatherCatV1.11B39,2013-01-12 03:16:00,
2013-01-11 22:21:00,30.8,28.8,29.79,South,175,0.0,0.0,92,0.00,,,0.00,0,WeatherCatV1.11B39,2013-01-12 03:21:00,
2013-01-11 22:26:00,30.8,28.8,29.79,South,175,0.0,0.0,92,0.00,,,0.00,0,WeatherCatV1.11B39,2013-01-12 03:26:00,
2013-01-11 22:31:00,30.8,28.8,29.79,South,175,0.0,0.0,92,0.00,,,0.00,0,WeatherCatV1.11B39,2013-01-12 03:31:00,
2013-01-11 22:36:00,30.8,28.8,29.79,South,175,0.0,0.0,92,0.00,,,0.00,0,WeatherCatV1.11B39,2013-01-12 03:36:00,
2013-01-11 22:41:00,30.8,29.0,29.78,South,175,0.0,0.0,93,0.00,,,0.00,0,WeatherCatV1.11B39,2013-01-12 03:41:00,
2013-01-11 22:46:00,30.8,29.0,29.78,South,175,0.0,0.0,93,0.00,,,0.00,0,WeatherCatV1.11B39,2013-01-12 03:46:00,
2013-01-11 22:51:00,30.8,29.0,29.77,South,175,0.0,0.0,93,0.00,,,0.00,0,WeatherCatV1.11B39,2013-01-12 03:51:00,
2013-01-11 22:56:00,30.8,29.0,29.78,South,175,0.0,0.0,93,0.00,,,0.00,0,WeatherCatV1.11B39,2013-01-12 03:56:00,
2013-01-11 23:01:00,30.8,29.0,29.78,South,175,0.0,0.0,93,0.00,,,0.00,0,WeatherCatV1.11B39,2013-01-12 04:01:00,
2013-01-11 23:06:00,30.8,29.0,29.78,South,175,0.0,0.0,93,0.00,,,0.00,0,WeatherCatV1.11B39,2013-01-12 04:06:00,
2013-01-11 23:11:00,30.8,29.0,29.77,South,175,0.0,0.0,93,0.00,,,0.00,0,WeatherCatV1.11B39,2013-01-12 04:11:00,
2013-01-11 23:16:00,30.8,29.3,29.77,South,175,0.0,0.0,94,0.00,,,0.00,0,WeatherCatV1.11B39,2013-01-12 04:16:00,
2013-01-11 23:21:00,30.8,29.3,29.78,South,175,0.0,0.0,94,0.00,,,0.00,0,WeatherCatV1.11B39,2013-01-12 04:21:00,
2013-01-11 23:26:00,30.8,29.3,29.78,South,175,0.0,0.0,94,0.00,,,0.00,0,WeatherCatV1.11B39,2013-01-12 04:26:00,
2013-01-11 23:31:00,30.8,29.3,29.78,South,175,0.0,1.0,94,0.00,,,0.00,0,WeatherCatV1.11B39,2013-01-12 04:31:00,
2013-01-11 23:36:00,30.8,29.3,29.78,South,175,0.0,1.0,94,0.00,,,0.00,0,WeatherCatV1.11B39,2013-01-12 04:36:00,
2013-01-11 23:41:00,30.8,29.3,29.77,South,175,0.0,0.0,94,0.00,,,0.00,0,WeatherCatV1.11B39,2013-01-12 04:41:00,
2013-01-11 23:46:00,30.8,29.5,29.77,South,175,0.0,0.0,95,0.00,,,0.00,0,WeatherCatV1.11B39,2013-01-12 04:46:00,
2013-01-11 23:51:00,30.8,29.5,29.77,South,175,0.0,0.0,95,0.00,,,0.00,0,WeatherCatV1.11B39,2013-01-12 04:51:00,
2013-01-11 23:56:00,30.8,29.5,29.77,South,175,0.0,0.0,95,0.00,,,0.00,0,WeatherCatV1.11B39,2013-01-12 04:56:00,